Location: Rumah Long Bangan
(2.8362°N, 113.7519°E)
Time: 19:50:23
(UTC+00:00)

Cosmos 1470 - Pass Details

Date: 24 October 2021
Orbit: 519 x 541 km, 82.5° (Epoch: 07 December)

Event Time Altitude Azimuth Distance (km) Brightness Sun altitude
Exits shadow 20:24:38 34° 155° (SSE) 871 4.0 -26.1°
Drops below altitude 10° 20:26:56 10° 168° (SSE) 1,748 5.6 -25.6°
Sets 20:29:04 0° 171° (S) 2,637 6.6 -25.0°
